• In Uzbekistan
  • List of Countries
  • For 7 days
  • Water Temperature
  • Weather Map
  • Weather Widgets
  • user-avatar
    Login

    Hourly Weather Cajamarca

    Today, 20 January, Monday

    Time Temperature Precipitation Wind Pressure Humidity
    00:00 +13°C° 0 mm 1 mps 544 mmHg 89%
    01:00 +12°C° 0 mm 1 mps 544 mmHg 88%
    02:00 +12°C° 0 mm 1 mps 543 mmHg 88%
    03:00 +12°C° 0 mm 1 mps 543 mmHg 87%
    04:00 +11°C° 0 mm 1 mps 543 mmHg 87%
    05:00 +12°C° 0 mm 1 mps 543 mmHg 85%
    06:00 +12°C° 0 mm 1 mps 544 mmHg 84%
    07:00 +13°C° 0 mm 1 mps 544 mmHg 82%
    08:00 +15°C° 0 mm 1 mps 546 mmHg 74%
    09:00 +18°C° 0 mm 1 mps 547 mmHg 66%
    10:00 +19°C° 0 mm 2 mps 548 mmHg 58%
    11:00 +19°C° 1 mm 2 mps 548 mmHg 58%
    12:00 +20°C° 1 mm 2 mps 547 mmHg 59%
    13:00 +20°C° 1 mm 2 mps 547 mmHg 59%
    14:00 +20°C° 2.3 mm 2 mps 546 mmHg 64%
    15:00 +19°C° 2.3 mm 2 mps 545 mmHg 68%
    16:00 +18°C° 2.3 mm 3 mps 545 mmHg 72%
    17:00 +17°C° 1.5 mm 2 mps 544 mmHg 78%
    18:00 +16°C° 1.5 mm 2 mps 544 mmHg 83%
    19:00 +15°C° 1.5 mm 2 mps 544 mmHg 88%
    20:00 +14°C° 0.3 mm 1 mps 544 mmHg 88%
    21:00 +14°C° 0.3 mm 1 mps 544 mmHg 87%
    22:00 +14°C° 0.3 mm 1 mps 545 mmHg 86%
    23:00 +14°C° 0.6 mm 1 mps 545 mmHg 86%

    Tomorrow, 21 January, Tuesday

    Time Temperature Precipitation Wind Pressure Humidity
    00:00 +13°C° 0.6 mm 1 mps 544 mmHg 86%
    01:00 +13°C° 0.6 mm 1 mps 544 mmHg 86%
    02:00 +13°C° 0 mm 1 mps 544 mmHg 87%
    03:00 +12°C° 0 mm 1 mps 543 mmHg 87%
    04:00 +11°C° 0 mm 0 mps 543 mmHg 88%
    05:00 +11°C° 0 mm 0 mps 543 mmHg 87%
    06:00 +12°C° 0 mm 0 mps 543 mmHg 86%
    07:00 +12°C° 0 mm 0 mps 544 mmHg 85%
    08:00 +14°C° 0 mm 0 mps 545 mmHg 78%
    09:00 +16°C° 0 mm 1 mps 546 mmHg 72%
    10:00 +19°C° 0 mm 1 mps 547 mmHg 65%
    11:00 +19°C° 0.6 mm 1 mps 546 mmHg 67%
    12:00 +18°C° 0.6 mm 2 mps 546 mmHg 69%
    13:00 +18°C° 0.6 mm 2 mps 546 mmHg 71%
    14:00 +18°C° 0.9 mm 3 mps 545 mmHg 75%
    15:00 +17°C° 0.9 mm 3 mps 544 mmHg 79%
    16:00 +16°C° 0.9 mm 3 mps 543 mmHg 82%
    17:00 +14°C° 0.3 mm 3 mps 543 mmHg 86%
    18:00 +14°C° 0.3 mm 2 mps 543 mmHg 89%
    19:00 +14°C° 0.3 mm 2 mps 543 mmHg 93%
    20:00 +13°C° 0.1 mm 2 mps 543 mmHg 93%
    21:00 +13°C° 0.1 mm 2 mps 543 mmHg 93%
    22:00 +13°C° 0.1 mm 1 mps 544 mmHg 93%
    23:00 +13°C° 0.1 mm 1 mps 543 mmHg 93%

    Day after tomorrow, 22 January, Wednesday

    Time Temperature Precipitation Wind Pressure Humidity
    00:00 +13°C° 0.1 mm 1 mps 543 mmHg 93%
    01:00 +12°C° 0.1 mm 1 mps 543 mmHg 94%
    02:00 +12°C° 0 mm 1 mps 543 mmHg 94%
    03:00 +12°C° 0 mm 1 mps 542 mmHg 95%
    04:00 +12°C° 0 mm 1 mps 542 mmHg 96%
    05:00 +12°C° 0 mm 1 mps 542 mmHg 95%
    06:00 +12°C° 0 mm 1 mps 542 mmHg 94%
    07:00 +12°C° 0 mm 1 mps 543 mmHg 93%
    08:00 +13°C° 0 mm 1 mps 544 mmHg 89%
    09:00 +14°C° 0 mm 1 mps 544 mmHg 84%
    10:00 +15°C° 0 mm 1 mps 545 mmHg 79%
    11:00 +16°C° 0.3 mm 2 mps 545 mmHg 79%
    12:00 +16°C° 0.3 mm 2 mps 545 mmHg 79%
    13:00 +17°C° 0.3 mm 3 mps 544 mmHg 79%
    14:00 +16°C° 0.6 mm 3 mps 544 mmHg 82%
    15:00 +14°C° 0.6 mm 3 mps 543 mmHg 85%
    16:00 +13°C° 0.6 mm 3 mps 542 mmHg 89%
    17:00 +14°C° 0.3 mm 2 mps 542 mmHg 91%
    18:00 +13°C° 0.3 mm 2 mps 542 mmHg 93%
    19:00 +13°C° 0.3 mm 2 mps 542 mmHg 94%
    20:00 +13°C° 0.1 mm 2 mps 543 mmHg 95%
    21:00 +12°C° 0.1 mm 2 mps 543 mmHg 95%
    22:00 +12°C° 0.1 mm 1 mps 543 mmHg 95%
    23:00 +12°C° 0 mm 1 mps 543 mmHg 95%

    23 January, Thursday

    Time Temperature Precipitation Wind Pressure Humidity
    00:00 +12°C° 0 mm 1 mps 543 mmHg 95%
    01:00 +12°C° 0 mm 1 mps 543 mmHg 95%
    02:00 +11°C° 0.1 mm 1 mps 542 mmHg 95%
    03:00 +11°C° 0.1 mm 1 mps 542 mmHg 95%
    04:00 +11°C° 0.1 mm 1 mps 541 mmHg 95%
    05:00 +11°C° 0 mm 1 mps 542 mmHg 94%
    06:00 +11°C° 0 mm 1 mps 542 mmHg 93%
    07:00 +11°C° 0 mm 1 mps 542 mmHg 92%
    08:00 +13°C° 0 mm 1 mps 544 mmHg 84%
    09:00 +14°C° 0 mm 1 mps 545 mmHg 76%
    10:00 +16°C° 0 mm 1 mps 546 mmHg 68%
    11:00 +16°C° 0.2 mm 2 mps 545 mmHg 70%
    12:00 +16°C° 0.2 mm 2 mps 545 mmHg 73%
    13:00 +17°C° 0.2 mm 3 mps 544 mmHg 75%
    14:00 +16°C° 0.6 mm 3 mps 543 mmHg 80%
    15:00 +14°C° 0.6 mm 3 mps 542 mmHg 85%
    16:00 +13°C° 0.6 mm 3 mps 541 mmHg 90%
    17:00 +13°C° 0.5 mm 2 mps 542 mmHg 91%
    18:00 +13°C° 0.5 mm 2 mps 542 mmHg 93%
    19:00 +12°C° 0.5 mm 2 mps 542 mmHg 94%
    20:00 +12°C° 0.1 mm 2 mps 542 mmHg 94%
    21:00 +12°C° 0.1 mm 1 mps 543 mmHg 94%
    22:00 +12°C° 0.1 mm 1 mps 543 mmHg 94%
    23:00 +11°C° 0 mm 1 mps 543 mmHg 94%

    24 January, Friday

    Time Temperature Precipitation Wind Pressure Humidity
    00:00 +11°C° 0 mm 1 mps 543 mmHg 94%
    01:00 +11°C° 0 mm 1 mps 543 mmHg 94%
    02:00 +11°C° 0 mm 1 mps 542 mmHg 94%
    03:00 +11°C° 0 mm 1 mps 542 mmHg 94%
    04:00 +11°C° 0 mm 1 mps 542 mmHg 95%
    05:00 +11°C° 0 mm 1 mps 542 mmHg 93%
    06:00 +11°C° 0 mm 1 mps 543 mmHg 92%
    07:00 +10°C° 0 mm 0 mps 543 mmHg 91%
    08:00 +13°C° 0 mm 1 mps 544 mmHg 84%
    09:00 +14°C° 0 mm 1 mps 545 mmHg 77%
    10:00 +16°C° 0 mm 1 mps 546 mmHg 70%
    11:00 +16°C° 0.2 mm 2 mps 546 mmHg 71%
    12:00 +16°C° 0.2 mm 2 mps 545 mmHg 73%
    13:00 +17°C° 0.2 mm 2 mps 545 mmHg 74%
    14:00 +16°C° 0.6 mm 2 mps 544 mmHg 79%
    15:00 +15°C° 0.6 mm 2 mps 543 mmHg 84%
    16:00 +14°C° 0.6 mm 2 mps 542 mmHg 88%
    17:00 +14°C° 0.3 mm 2 mps 542 mmHg 90%
    18:00 +13°C° 0.3 mm 2 mps 543 mmHg 92%
    19:00 +13°C° 0.3 mm 2 mps 543 mmHg 94%
    20:00 +13°C° 0.1 mm 1 mps 543 mmHg 94%
    21:00 +12°C° 0.1 mm 1 mps 544 mmHg 94%
    22:00 +12°C° 0.1 mm 1 mps 544 mmHg 95%
    23:00 +12°C° 0 mm 1 mps 544 mmHg 95%

    25 January, Saturday

    Time Temperature Precipitation Wind Pressure Humidity
    00:00 +12°C° 0 mm 1 mps 543 mmHg 95%
    01:00 +12°C° 0 mm 1 mps 543 mmHg 96%
    02:00 +12°C° 0.1 mm 1 mps 543 mmHg 96%
    03:00 +11°C° 0.1 mm 1 mps 543 mmHg 95%
    04:00 +11°C° 0.1 mm 1 mps 543 mmHg 95%
    05:00 +11°C° 0.1 mm 1 mps 543 mmHg 94%
    06:00 +11°C° 0.1 mm 1 mps 543 mmHg 94%
    07:00 +10°C° 0.1 mm 0 mps 544 mmHg 93%
    08:00 +13°C° 0 mm 1 mps 545 mmHg 83%
    09:00 +15°C° 0 mm 1 mps 546 mmHg 74%
    10:00 +18°C° 0 mm 1 mps 547 mmHg 64%
    11:00 +17°C° 0.1 mm 2 mps 547 mmHg 64%
    12:00 +18°C° 0.1 mm 2 mps 546 mmHg 64%
    13:00 +18°C° 0.1 mm 3 mps 546 mmHg 64%
    14:00 +17°C° 0.5 mm 3 mps 545 mmHg 71%
    15:00 +16°C° 0.5 mm 3 mps 544 mmHg 77%
    16:00 +14°C° 0.5 mm 3 mps 543 mmHg 84%
    17:00 +13°C° 0.6 mm 3 mps 543 mmHg 86%
    18:00 +13°C° 0.6 mm 2 mps 543 mmHg 88%
    19:00 +12°C° 0.6 mm 2 mps 544 mmHg 90%
    20:00 +12°C° 0.1 mm 1 mps 544 mmHg 89%
    21:00 +12°C° 0.1 mm 1 mps 544 mmHg 89%
    22:00 +12°C° 0.1 mm 1 mps 545 mmHg 89%
    23:00 +12°C° 0 mm 1 mps 544 mmHg 88%
    Show more